DW7110 Weather Reports


Display with metric or nautical units.
time (UTC)temp
F
wind
direction
speed
MPH
gust
MPH
rain 1hr
in
rain 24hr
in
rain mn
in
humidity
%
barometer
mb
20260506153047 60 1 0.0 2.0 0.56 0.63 0.63 92 1016.4
20260506151545 59 1 0.0 3.0 0.33 0.39 0.39 91 1015.6
20260506150050 60 1 0.0 3.0 0.05 0.11 0.11 90 1015.7
20260506144558 60 1 0.0 6.0 0.02 0.07 0.07 89 1014.8
20260506143050 61 1 0.0 4.0 0.03 0.07 0.07 89 1014.5
20260506141539 61 1 2.0 5.0 0.02 0.06 0.06 88 1014.6
20260506140055 60 1 0.0 3.0 0.03 0.06 0.06 89 1014.3
20260506134539 60 1 0.0 3.0 0.03 0.05 0.05 88 1014.2
20260506133037 60 1 0.0 6.0 0.04 0.04 0.04 88 1013.9
20260506131543 60 1 0.0 0.0 0.04 0.04 0.04 88 1014.5
20260506130041 61 1 0.0 0.0 0.03 0.03 0.03 87 1014.6
20260506124533 62 1 0.0 4.0 0.02 0.02 0.02 84 1014.7
20260506123037 62 1 0.0 1.0 0.00 0.00 0.00 83 1014.3
20260506121528 62 1 0.0 4.0 0.00 0.00 0.00 79 1014.1
20260506120032 62 1 0.0 5.0 0.00 0.00 0.00 79 1014.4
20260506114526 62 1 0.0 6.0 0.00 0.00 0.00 78 1014.0
20260506113032 62 1 0.0 8.0 0.00 0.00 0.00 78 1014.1
20260506111524 62 1 0.0 10.0 0.00 0.00 0.00 78 1014.1
20260506110032 62 1 0.0 6.0 0.00 0.00 0.00 77 1014.0
20260506104527 62 1 1.0 5.0 0.00 0.00 0.00 76 1014.0
20260506103024 62 1 0.0 8.0 0.00 0.00 0.00 76 1013.6
20260506101520 62 1 0.0 7.0 0.00 0.00 0.00 75 1013.4
20260506100021 62 1 1.0 4.0 0.00 0.00 0.00 75 1013.6
20260506094523 62 1 0.0 5.0 0.00 0.00 0.00 75 1013.3
20260506093027 62 1 0.0 4.0 0.00 0.00 0.00 74 1013.3
20260506091519 62 1 0.0 3.0 0.00 0.00 0.00 74 1013.2
20260506090016 62 1 0.0 6.0 0.00 0.00 0.00 73 1013.2
20260506084516 62 1 2.0 5.0 0.00 0.00 0.00 73 1013.4
20260506083017 62 1 0.0 3.0 0.00 0.00 0.00 72 1013.5
20260506081515 63 1 0.0 3.0 0.00 0.00 0.00 70 1013.5
20260506073009 63 1 2.0 6.0 0.00 0.00 0.00 67 1013.9
20260506071506 63 1 2.0 11.0 0.00 0.00 0.00 65 1014.2
20260506061601 63 1 3.0 8.0 0.00 0.00 0.00 61 1014.4
20260506044557 63 1 0.0 6.0 0.00 0.00 0.00 61 1014.7
20260506043056 63 1 0.0 5.0 0.00 0.00 0.00 62 1015.3
20260506041551 63 1 4.0 9.0 0.00 0.00 0.00 62 1015.2
20260506040049 63 1 1.0 4.0 0.00 0.00 0.00 62 1015.4
20260506034609 63 1 1.0 5.0 0.00 0.00 0.00 63 1015.5
20260506033047 63 1 0.0 7.0 0.00 0.00 0.00 62 1015.4
20260506031552 63 1 1.0 4.0 0.00 0.00 0.00 62 1015.3
20260506030046 63 1 0.0 4.0 0.00 0.00 0.00 62 1015.3
20260506024552 62 1 0.0 5.0 0.00 0.00 0.00 62 1015.2
20260506023054 62 1 0.0 0.0 0.00 0.00 0.00 61 1015.4
20260506021545 63 1 1.0 3.0 0.00 0.00 0.00 60 1015.3
20260506020045 63 1 0.0 4.0 0.00 0.00 0.00 60 1015.2
20260506014545 63 1 2.0 5.0 0.00 0.00 0.00 58 1014.9
20260506013043 64 1 1.0 8.0 0.00 0.00 0.00 57 1014.9
20260506011545 64 1 0.0 7.0 0.00 0.00 0.00 56 1015.1
20260506010054 64 1 0.0 6.0 0.00 0.00 0.00 55 1014.9
20260506004542 65 1 0.0 0.0 0.00 0.00 0.00 55 1015.0
20260506003042 65 1 0.0 4.0 0.00 0.00 0.00 55 1014.8
20260506001545 65 1 1.0 7.0 0.00 0.00 0.00 54 1014.7
20260506000040 66 1 0.0 6.0 0.00 0.00 0.00 53 1014.4
20260505234541 66 1 0.0 4.0 0.00 0.00 0.00 52 1014.3
20260505233046 67 1 1.0 4.0 0.00 0.00 0.00 52 1014.3
20260505231539 67 1 0.0 6.0 0.00 0.00 0.00 52 1014.4
20260505230044 68 1 1.0 6.0 0.00 0.00 0.00 51 1014.8
20260505224543 68 1 0.0 4.0 0.00 0.00 0.00 50 1014.5
20260505223039 69 1 1.0 7.0 0.00 0.00 0.00 50 1014.5
20260505221534 69 1 0.0 9.0 0.00 0.00 0.00 49 1014.5
20260505220034 70 1 2.0 14.0 0.00 0.00 0.00 50 1014.4
20260505214534 71 1 1.0 7.0 0.00 0.00 0.00 47 1014.4
20260505213033 71 1 2.0 11.0 0.00 0.00 0.00 50 1014.2
20260505211534 71 1 1.0 10.0 0.00 0.00 0.00 49 1014.4
20260505210031 71 1 1.0 9.0 0.00 0.00 0.00 49 1014.2
20260505204530 71 1 4.0 12.0 0.00 0.00 0.00 46 1014.4
20260505203031 71 1 4.0 11.0 0.00 0.00 0.00 48 1014.7
20260505201527 70 1 3.0 10.0 0.00 0.00 0.00 45 1014.7
20260505200025 69 1 2.0 6.0 0.00 0.00 0.00 44 1014.9
20260505194525 69 1 2.0 10.0 0.00 0.00 0.00 46 1015.1
20260505193022 69 1 0.0 10.0 0.00 0.00 0.00 46 1015.3
20260505191522 70 1 2.0 16.0 0.00 0.00 0.00 45 1015.5
20260505190027 70 1 2.0 9.0 0.00 0.00 0.00 47 1015.7
20260505184520 71 1 2.0 8.0 0.00 0.00 0.00 48 1015.8
20260505183018 71 1 2.0 13.0 0.00 0.00 0.00 47 1015.9
20260505181519 71 1 6.0 14.0 0.00 0.00 0.00 44 1015.8
20260505180017 71 1 3.0 9.0 0.00 0.00 0.00 46 1015.9
20260505174517 72 1 2.0 8.0 0.00 0.00 0.00 46 1016.0
20260505173014 72 1 1.0 6.0 0.00 0.00 0.00 50 1016.4
20260505171513 71 1 1.0 9.0 0.00 0.00 0.00 52 1016.7
20260505170018 71 1 4.0 8.0 0.00 0.00 0.00 45 1016.8
20260505164511 71 1 0.0 10.0 0.00 0.00 0.00 49 1016.8
20260505163010 70 1 1.0 11.0 0.00 0.00 0.00 52 1016.6
20260505161503 69 1 3.0 7.0 0.00 0.00 0.00 53 1016.6